Martinsville, VA

8:02 PM EDT on May 20, 2018 (GMT -0400)
Blue Ridge

Weather History for KMTV - January, 2012

Change the Weather History Date:

Saturday, January 21, 2012

  Actual Average (KINT) Record (KINT)
Temperature  
Mean Temperature 44 °F -  
Max Temperature 51 °F 44 °F 64 °F (2018)
Min Temperature 37 °F 28 °F -10 °F (1985)
Degree Days  
Heating Degree Days 21    
Moisture  
Dew Point 43 °F    
Average Humidity 100    
Maximum Humidity 100    
Minimum Humidity 100    
Precipitation  
Precipitation 0.32 in - - ()
Sea Level Pressure  
Sea Level Pressure 29.96 in    
Wind  
Wind Speed 1 mph (NNE)    
Max Wind Speed 9 mph    
Max Gust Speed -    
Visibility 7 miles    
Events Rain    
Averages and records for this station are not official NWS values.
T = Trace of Precipitation, MM = Missing Value Source: NWS Daily Summary

Daily Weather History Graph

Daily Weather History Graph

Search for Another Location

Airport or City:

Astronomy

Jan. 21, 2012 Rise Set
Actual Time 7:29 AM EST 5:33 PM EST
Civil Twilight 7:01 AM EST 6:01 PM EST
Nautical Twilight 6:29 AM EST 6:32 PM EST
Astronomical Twilight 5:59 AM EST 7:03 PM EST
Moon 5:57 AM EST 4:08 PM EST
Length of Visible Light 10h 59m
Length of Day
10h 04m
Waning Crescent, 3% of the Moon is Illuminated
Jan 21
Waning Crescent
Jan 23
New
Jan 30
First Quarter
Feb 7
Full
Feb 14
Last Quarter

Hourly Weather History & Observations

Time (EST) Temp. Windchill Dew Point Humidity Pressure Visibility Wind Dir Wind Speed Gust Speed Precip Events Conditions
12:15 AM 39.2 °F 37.0 °F 39.2 °F 100% 30.11 in 4.0 mi North 3.5 mph - N/A   Drizzle
12:35 AM 39.2 °F 37.0 °F 39.2 °F 100% 30.10 in 7.0 mi North 3.5 mph - 0.01 in Rain Light Rain
12:55 AM 37.4 °F 34.9 °F 37.4 °F 100% 30.10 in 7.0 mi North 3.5 mph - N/A   Light Drizzle
1:15 AM 37.4 °F - 37.4 °F 100% 30.09 in 5.0 mi Calm Calm - N/A Rain Rain
1:35 AM 37.4 °F - 37.4 °F 100% 30.07 in 2.5 mi Calm Calm - N/A   Drizzle
1:55 AM 37.4 °F 34.9 °F 37.4 °F 100% 30.07 in 3.0 mi NNW 3.5 mph - N/A   Light Drizzle
2:15 AM 37.4 °F - 37.4 °F 100% 30.04 in 2.5 mi Calm Calm - N/A   Overcast
2:35 AM 37.4 °F - 37.4 °F 100% 30.02 in 3.0 mi Calm Calm - N/A   Overcast
2:55 AM 37.4 °F - 37.4 °F 100% 30.02 in 3.0 mi Calm Calm - N/A   Overcast
3:15 AM 37.4 °F - 37.4 °F 100% 30.00 in 2.5 mi Calm Calm - N/A   Overcast
3:35 AM 37.4 °F - 37.4 °F 100% 29.99 in 2.0 mi Calm Calm - N/A   Overcast
3:55 AM 37.4 °F - 37.4 °F 100% 29.98 in 2.0 mi Calm Calm - N/A   Overcast
4:15 AM 37.4 °F - 37.4 °F 100% 29.97 in 2.0 mi Calm Calm - N/A   Overcast
4:35 AM 37.4 °F - 37.4 °F 100% 29.95 in 2.0 mi Calm Calm - N/A   Overcast
4:55 AM 37.4 °F - 37.4 °F 100% 29.96 in 1.5 mi Calm Calm - N/A   Overcast
5:15 AM 37.4 °F - 37.4 °F 100% 29.95 in 2.5 mi Calm Calm - 0.01 in   Overcast
5:35 AM 37.4 °F - 37.4 °F 100% 29.94 in 1.8 mi Calm Calm - 0.01 in   Light Drizzle
5:55 AM 37.4 °F - 37.4 °F 100% 29.94 in 1.8 mi Calm Calm - N/A Rain Light Rain
6:15 AM 37.4 °F - 37.4 °F 100% 29.93 in 1.8 mi Calm Calm - N/A   Light Drizzle
6:35 AM 37.4 °F - 37.4 °F 100% 29.93 in 2.0 mi Calm Calm - N/A   Overcast
6:55 AM 37.4 °F - 37.4 °F 100% 29.94 in 2.0 mi Calm Calm - N/A   Overcast
7:15 AM 37.4 °F - 37.4 °F 100% 29.93 in 1.2 mi Calm Calm - 0.04 in Rain Rain
7:35 AM 37.4 °F - 37.4 °F 100% 29.93 in 2.5 mi Calm Calm - 0.14 in Rain Rain
7:55 AM 37.4 °F 32.8 °F 37.4 °F 100% 29.90 in 1.8 mi SE 5.8 mph - 0.06 in   Overcast
8:15 AM 37.4 °F 31.4 °F 37.4 °F 100% 29.97 in 10.0 mi North 8.1 mph - 0.11 in Rain Light Rain
8:35 AM 37.4 °F - 37.4 °F 100% 29.95 in 10.0 mi Calm Calm - 0.12 in   Light Drizzle
8:55 AM 37.4 °F - 37.4 °F 100% 29.95 in 10.0 mi Calm Calm - N/A   Overcast
9:15 AM 39.2 °F - 39.2 °F 100% 29.93 in 10.0 mi Calm Calm - N/A   Overcast
9:35 AM 39.2 °F - 39.2 °F 100% 29.94 in 5.0 mi Calm Calm - N/A   Drizzle
9:55 AM 39.2 °F 37.0 °F 39.2 °F 100% 29.93 in 5.0 mi South 3.5 mph - N/A Rain Rain
10:15 AM 41.0 °F - 41.0 °F 100% 29.94 in 10.0 mi Calm Calm - 0.01 in   Light Drizzle
10:35 AM 42.8 °F 41.1 °F 42.8 °F 100% 29.93 in 10.0 mi SSW 3.5 mph - 0.01 in   Overcast
10:55 AM 42.8 °F - 42.8 °F 100% 29.93 in 10.0 mi Calm Calm - N/A Rain Light Rain
11:15 AM 42.8 °F - 42.8 °F 100% 29.92 in 5.0 mi Calm Calm - N/A Rain Rain
11:35 AM 44.6 °F 39.7 °F 44.6 °F 100% 29.86 in 7.0 mi SE 9.2 mph - 0.03 in Rain Light Rain
11:55 AM 44.6 °F - 44.6 °F 100% 29.89 in 10.0 mi Calm Calm - 0.01 in   Light Drizzle
12:15 PM 46.4 °F - 46.4 °F 100% 29.89 in 10.0 mi Calm Calm - 0.01 in   Mostly Cloudy
12:35 PM 48.2 °F - 48.2 °F 100% 29.87 in 10.0 mi Calm Calm - 0.01 in   Scattered Clouds
12:55 PM 48.2 °F - 48.2 °F 100% 29.87 in 10.0 mi Calm Calm - N/A   Scattered Clouds
1:15 PM 48.2 °F - 48.2 °F 100% 29.88 in 10.0 mi Calm Calm - N/A   Scattered Clouds
1:35 PM 50.0 °F - 50.0 °F 100% 29.88 in 10.0 mi SSW 4.6 mph - N/A   Clear
1:55 PM 51.8 °F - 51.8 °F 100% 29.88 in 10.0 mi Calm Calm - N/A   Clear
2:15 PM 51.8 °F - 51.8 °F 100% 29.87 in 10.0 mi Calm Calm - N/A   Clear
2:35 PM 51.8 °F - 51.8 °F 100% 29.88 in 10.0 mi Calm Calm - N/A   Clear
2:55 PM 51.8 °F - 51.8 °F 100% 29.90 in 10.0 mi Calm Calm - N/A   Scattered Clouds
3:15 PM 51.8 °F - 51.8 °F 100% 29.91 in 10.0 mi Calm Calm - N/A   Mostly Cloudy
3:35 PM 51.8 °F - 51.8 °F 100% 29.91 in 10.0 mi Calm Calm - N/A   Overcast
3:55 PM 51.8 °F - 51.8 °F 100% 29.93 in 10.0 mi Calm Calm - N/A   Overcast
4:15 PM 51.8 °F - 51.8 °F 100% 29.94 in 10.0 mi Calm Calm - N/A   Overcast
4:35 PM 51.8 °F - 51.8 °F 100% 29.95 in 10.0 mi Calm Calm - N/A   Overcast
4:55 PM 51.8 °F - 51.8 °F 100% 29.96 in 10.0 mi Calm Calm - N/A   Overcast
5:15 PM 50.0 °F - 50.0 °F 100% 29.97 in 10.0 mi Calm Calm - N/A   Overcast
5:35 PM 50.0 °F - 50.0 °F 100% 30.00 in 10.0 mi Calm Calm - N/A   Overcast
5:55 PM 50.0 °F - 50.0 °F 100% 30.01 in 10.0 mi NE 3.5 mph - N/A   Overcast
6:15 PM 51.8 °F - 51.8 °F 100% 30.03 in 10.0 mi Calm Calm - N/A   Overcast
6:35 PM 50.0 °F - 50.0 °F 100% 30.05 in 10.0 mi Calm Calm - N/A   Overcast
6:55 PM 50.0 °F - 50.0 °F 100% 30.07 in 10.0 mi Calm Calm - N/A   Overcast
7:15 PM 51.8 °F - 51.8 °F 100% 30.07 in 10.0 mi NE 4.6 mph - N/A   Overcast
7:35 PM 50.0 °F - 50.0 °F 100% 30.07 in 10.0 mi Calm Calm - N/A   Overcast
7:55 PM 48.2 °F - 48.2 °F 100% 30.08 in 10.0 mi ENE 6.9 mph - N/A   Mostly Cloudy
8:35 PM 46.4 °F 43.5 °F 46.4 °F 100% 30.09 in 10.0 mi NE 5.8 mph - N/A   Clear
8:55 PM 46.4 °F 45.2 °F 46.4 °F 100% 30.11 in 10.0 mi NNE 3.5 mph - N/A   Mostly Cloudy
9:15 PM 46.4 °F 42.9 °F 46.4 °F 100% 30.12 in 10.0 mi East 6.9 mph - N/A   Overcast
9:35 PM 46.4 °F 42.4 °F 46.4 °F 100% 30.13 in 10.0 mi ENE 8.1 mph - N/A   Overcast
9:55 PM 44.6 °F 40.2 °F 44.6 °F 100% 30.15 in 10.0 mi East 8.1 mph - N/A   Overcast
10:15 PM 42.8 °F 37.5 °F 42.8 °F 100% 30.16 in 10.0 mi ENE 9.2 mph - N/A   Overcast
10:35 PM 41.0 °F 35.2 °F 41.0 °F 100% 30.18 in 10.0 mi East 9.2 mph - N/A   Overcast
10:55 PM 39.2 °F 33.6 °F 39.2 °F 100% 30.19 in 10.0 mi East 8.1 mph - N/A   Overcast
11:15 PM 39.2 °F 34.2 °F 39.2 °F 100% 30.20 in 7.0 mi East 6.9 mph - N/A   Overcast
11:35 PM 37.4 °F 30.8 °F 37.4 °F 100% 30.21 in 3.0 mi East 9.2 mph - N/A   Overcast
11:55 PM 37.4 °F 33.8 °F 37.4 °F 100% 30.21 in 3.0 mi East 4.6 mph - N/A   Overcast